Location: Evensen
(52.5775°N, 9.5258°E)
Time: 20:38:01
(UTC+00:00)

Cosmos 372 Rocket - Pass Details

Date: 15 May 2026
Orbit: 734 x 761 km, 74.1° (Epoch: 8 June)

Event Time Altitude Azimuth Distance (km) Brightness Sun altitude
Rises 21:55:17 0° 333° (NNW) 3,196 9.0 -16.1°
Reaches altitude 10° 21:57:39 10° 333° (NNW) 2,264 7.8 -16.3°
Maximum altitude 22:02:46 79° 247° (WSW) 757 3.9 -16.5°
Enters shadow 22:05:24 29° 164° (SSE) 1,331 4.6 -16.7°
